FALCON 9 R/B, 43563

Orbit data source: Space-Track

FALCON 9 R/B, 43563 is space debris originally from a launch on Sun, 22 Jul 2018 UTC launched from the Air Force Eastern Test Range (AFETR). Debris objects in space refer to the collection of defunct objects orbiting the Earth. Examples of debris include non-operational satellites, rocket bodies, and fragments generated from explosions, collisions, or faulty payload assembly.

Loading next visibility...
Identifier
43563, 2018-059B
Orbit
Active
Country
Flag of USUS
Related business
Manufacturer
SpaceX
Mission
Spacecraft
Bus & Motor
F9ST2, Unknown motor
Mass
~4,000 kg wet, ~4,000 kg dry
Launch date (UTC)
2018-07-22 (8 years ago)
Launch vehicle
Unknown
Launch site
Air Force Eastern Test Range (AFETR)
Object type
Payload
Rocket body
Debris
Shape & HBR
Cyl, 7.8 m
Radar Cross Section
39.980 m², Large (>1 m²)

Expand to show TLE details & history
Last TLE update: 19 hours ago

TLE from 19 hours ago
0 FALCON 9 R/B
1 43563U 18059B   26191.86785347  .00088956  00000-0  10316-2 0  9990
2 43563  26.9797  28.5004 4091766 130.9225 272.5159  7.39214163159212
Epoch: 2026-07-10T20:49Z
TLE epoch observation values (Epoch: 2026-07-10T20:49:42.539Z)
Latitude
-0.00002°
Longitude
147.28386°
Altitude
6,278.047 km
Speed
5.215 km/s
True Right ascension
01h 54m 00s
True Declination
0° 00' 00"
Sunlit
Object was in daylight at epoch
Visualization orbit readout
Latitude
Unknown
Longitude
Unknown
Altitude
Unknown
Speed
Unknown
Apparent Right ascension
Unknown
Apparent Declination
Unknown
Sunlit
N/A
Visualization observer readout
Local Sidereal Time
03:49:39
Azimuth
Unknown
Elevation
Unknown
Doppler factor
Unknown
Orbital elements
Apogee altitude
9,313.243 km
Perigee altitude
200.765 km
Semi-major axis
11,135.141 km
Eccentricity
0.40918
Inclination
26.9797°
RAAN
28.5004°
Arg. of periapsis
130.9225°
True anomaly
229.1201°
Mean anomaly
272.5159°
Eccentric anomaly
250.42657°
Mean motion
1.84714 °/min
Orbital period
194.9 mins
BSTAR
0.0010316
Loading maneuver chart data...
Computing Atmospheric mass density...
Loading historical data...
Loading historical data...
Loading historical data...
Loading historical data...
Loading historical data...
Loading historical data...
Loading historical data...
Other satellites on launch #59 in the year 2018 (2018-07-22 UTC)

Documentation

Showing up to 5 results
|